星链-6183 (STARLINK-6183 )

导读 | 豆包AI

STARLINK-6183是美国太空探索技术公司(SpaceX)星链卫星互联网项目的卫星,于2023年6月12日发射入轨,隶属于星链低轨星座星座组网卫星。星链计划旨在通过大规模低轨卫星部署,为全球用户提供高速、低延迟的宽带互联网接入服务,STARLINK-6183的成功发射进一步扩充了星链星座的卫星规模。

基本信息
目录编号:
56905
目录名称:
STARLINK-6183
国际标识:
2023-083AF
轨道中心:
EARTH
卫星名称:
星链-6183
卫星全名:
星链-6183 (STARLINK-6183 )
卫星状态:
在轨 (已飞行1053 天)
发射日期:
2023-06-12 UTC
国别 :
美国 (US)
星等 :
--
轨道信息
数据来源 国际轨道数据
星历时间: 2026-04-29T16:54:45+0800
22小时前
查看轨道信息
半长轴: 6861.196km
偏心率: 0.000149
轨道倾角: 43.001°
近地点辐角 275.494°
升交点赤经 144.086°
平近点角 84.574°
近地点: 482.036km
远地点: 484.082km
周期: 94.267分钟
每日圈数: 15.275768
详细信息
固有亮度:
5
最大亮度:
2.4
卫星平台:
Starlink v1.5
覆盖范围:
全球
运营商:
太空探索技术公司
运营商所在国:
美国
制造商(研发单位):
太空探索技术公司
制造商所在国:
美国
使用方式:
暂无
卫星简介
星链(Starlink)计划是由太空探索技术公司(SpaceX)提出的一个巨型低轨卫星互联网星座项目,计划在2019年至2024年间在太空搭建由约1.2万颗卫星组成的“星链”网络,其中1584颗将部署在地球上空550千米处的近地轨道,并从2020年开始工作。该卫星仍在工作。
2D轨道图
3D轨道图
轨道高度分析图
轨道倾角分析图
轨道综合分析图
查看轨道综合分析图